Location: Newark
(6.1731°S, 35.7419°E)
Time: 00:19:59
(UTC+00:00)

Hubble Space Telescope - Visible Passes

Search period start: 18 January 2020 00:00
Search period end: 28 January 2020 00:00
Orbit: 536 x 540 km, 28.5° (Epoch: 17 January)

Date Brightness Start Highest point End Pass type
(mag) Time Alt. Az. Time Alt. Az. Time Alt. Az.
18 Jan 3.9 02:44:00 10° S 02:44:46 10° SSE 02:45:32 10° SSE visible
18 Jan 2.8 16:21:17 10° N 16:22:40 11° NNE 16:24:04 10° NE visible
18 Jan 3.2 17:59:42 10° NW 18:00:29 15° NW 18:00:29 15° NW visible
19 Jan 3.6 02:32:11 10° S 02:34:17 13° SSE 02:36:22 10° SE visible
19 Jan 1.9 17:49:04 10° WNW 17:51:43 38° WNW 17:51:43 38° WNW visible
20 Jan 3.4 02:20:58 10° SSW 02:23:46 17° SSE 02:26:34 10° ESE visible
20 Jan 1.2 17:38:32 10° WNW 17:42:36 57° SSW 17:42:58 54° S visible
21 Jan 3.0 02:09:56 10° SSW 02:13:14 23° SSE 02:16:32 10° E visible
21 Jan 2.0 17:28:06 10° W 17:32:00 40° SSW 17:34:10 22° SSE visible
22 Jan 2.5 02:00:06 16° SSW 02:02:40 30° SSE 02:06:20 10° E visible
22 Jan 2.6 17:17:47 10° W 17:21:26 29° SSW 17:25:04 10° SE visible
23 Jan 1.8 01:51:19 37° S 01:52:05 41° SSE 01:56:00 10° E visible
23 Jan 3.1 17:07:35 10° WSW 17:10:52 22° SSW 17:14:08 10° SSE visible
24 Jan 1.9 01:42:35 42° E 01:42:35 42° E 01:45:33 10° ENE visible
24 Jan 3.5 16:57:34 10° WSW 17:00:19 17° SSW 17:03:05 10° SSE visible
25 Jan 3.1 01:33:49 19° ENE 01:33:49 19° ENE 01:35:01 10° ENE visible
25 Jan 2.5 03:09:32 10° WNW 03:12:00 15° NNW 03:14:28 10° N visible
25 Jan 3.6 16:47:47 10° SW 16:49:48 13° SSW 16:51:50 10° S visible
26 Jan 2.8 03:00:21 10° NW 03:01:25 11° NNW 03:02:34 10° NNW visible
26 Jan 3.9 16:38:47 10° SSW 16:39:19 10° SSW 16:39:52 10° SSW visible
